Regional Weather Roundup
Issued by NWS

Home | Current Version | Previous Version | Text Only | Print | Product List | Glossary Off
Versions: 1 2 3 4 5 6 7 8 9 10 11 12 13 14 15 16 17 18 19 20 21 22 23 24 25 26 27 28 29 30 31 32 33 34 35 36 37 38 39 40 41 42 43 44 45 46 47 48 49 50

000
ASUS43 KMKX 201221
RWRWI

WISCONSIN REGIONAL WEATHER ROUNDUP
NATIONAL WEATHER SERVICE MILWAUKEE/SULLIVAN WI
600 AM CST MON FEB 20 2017

NOTE: "FAIR" INDICATES FEW OR NO CLOUDS BELOW 12,000 FEET WITH NO
SIGNIFICANT WEATHER AND/OR OBSTRUCTIONS TO VISIBILITY.

WIZ001-002-006>008-014>016-023>028-201300-
NORTHWEST WISCONSIN

CITY           SKY/WX    TMP DP  RH WIND       PRES   REMARKS
SUPERIOR ARPT  MOCLDY    36  34  93 NE12      29.91F WCI  27
6HR MIN TEMP:  34; 6HR MAX TEMP:  36;

ASHLAND        CLOUDY    45  35  68 SE6       29.94F
6HR MIN TEMP:  32; 6HR MAX TEMP:  45;

HAYWARD        CLOUDY    48  37  65 S8G24     29.92F
6HR MIN TEMP:  48; 6HR MAX TEMP:  51;

SIREN          CLOUDY    48  37  65 SE15G21   29.85F
6HR MIN TEMP:  48; 6HR MAX TEMP:  51;

CUMBERLAND     CLOUDY    41  34  75 SE12G20   29.90F
RICE LAKE      CLOUDY    44  36  72 SE16      29.93F
6HR MIN TEMP:  45; 6HR MAX TEMP:  46;

CHETEK         CLOUDY    43  36  75 SE12      29.93F
6HR MIN TEMP:  39; 6HR MAX TEMP:  46;

LADYSMITH      PTCLDY    43  35  73 E9        29.98S
6HR MIN TEMP:  43; 6HR MAX TEMP:  49;

EAU CLAIRE     CLOUDY    46  37  71 E8        29.93S
6HR MIN TEMP:  46; 6HR MAX TEMP:  50;

MENOMONIE      CLOUDY    41  36  83 E8        29.91F
6HR MIN TEMP:  41; 6HR MAX TEMP:  45;

NEW RICHMOND   CLOUDY    46  38  74 SE7       29.86F
6HR MIN TEMP:  46; 6HR MAX TEMP:  49;

OSCEOLA        CLOUDY    48  40  74 SE12      29.87F
6HR MIN TEMP:  47; 6HR MAX TEMP:  50;

$$

WIZ003>005-009-010-017-018-201300-
NORTH CENTRAL WISCONSIN

CITY           SKY/WX    TMP DP  RH WIND       PRES   REMARKS
MANITOWISH WTR CLOUDY    40  30  66 SE8       30.01F WCI  35
6HR MIN TEMP:  39; 6HR MAX TEMP:  43;

ARBOR VITAE    PTCLDY    42  30  64 SE13      30.02F
6HR MIN TEMP:  39; 6HR MAX TEMP:  42;

WOODRUFF       PTCLDY    42  30  64 SE13      30.02F
6HR MIN TEMP:  39; 6HR MAX TEMP:  42;

RHINELANDER    PTCLDY    38  31  76 E8        30.06S WCI  32
6HR MIN TEMP:  37; 6HR MAX TEMP:  39;

EAGLE RIVER    CLOUDY    37  28  70 SE9       30.06S WCI  31
6HR MIN TEMP:  36; 6HR MAX TEMP:  38;

LAND O LAKES   CLOUDY    38  30  71 SE13G20   30.07F WCI  31
6HR MIN TEMP:  38; 6HR MAX TEMP:  40;

PHILLIPS       CLOUDY    40  32  73 SE9       29.99S WCI  34
6HR MIN TEMP:  40; 6HR MAX TEMP:  44;

TOMAHAWK       CLOUDY    38  29  70 SE5       30.04F WCI  34
6HR MIN TEMP:  38; 6HR MAX TEMP:  41;

MEDFORD        CLOUDY    38  31  74 SE9       30.01S WCI  32
6HR MIN TEMP:  38; 6HR MAX TEMP:  44;

MERRILL        NOT AVBL
$$

WIZ029-030-035-036-043>047-201300-
CENTRAL WISCONSIN

CITY           SKY/WX    TMP DP  RH WIND       PRES   REMARKS
WAUSAU         CLOUDY    38  29  70 SE9       30.05S WCI  31
6HR MIN TEMP:  36; 6HR MAX TEMP:  40;

MOSINEE        PTCLDY    37  30  75 E8        30.06R WCI  31
MARSHFIELD     CLOUDY    40  32  73 E10       30.01S WCI  33
6HR MIN TEMP:  39; 6HR MAX TEMP:  43;

STEVENS POINT  CLOUDY    37  29  74 E7        30.07R WCI  31
6HR MIN TEMP:  35; 6HR MAX TEMP:  38;

WAUPACA        CLOUDY    35  31  85 CALM      30.09S
6HR MIN TEMP:  33; 6HR MAX TEMP:  39;

WAUTOMA        NOT AVBL
WISC RAPIDS    CLOUDY    41  34  76 E8        30.05R
6HR MIN TEMP:  39; 6HR MAX TEMP:  43;

CAMP DOUGLAS   CLOUDY    43  37  78 SE8       30.01S
6HR MIN TEMP:  37; 6HR MAX TEMP:  45;

$$

WIZ011>013-019>022-031-037>040-048>050-201300-
NORTHEAST WISCONSIN

CITY           SKY/WX    TMP DP  RH WIND       PRES   REMARKS
ANTIGO         CLOUDY    35  30  82 E15       30.08F WCI  25
6HR MIN TEMP:  34; 6HR MAX TEMP:  36;

SHAWANO        PTCLDY    33  31  92 NE3       30.12F
6HR MIN TEMP:  32; 6HR MAX TEMP:  35;

OCONTO         PTCLDY    32  29  91 E3        30.14F
6HR MIN TEMP:  27; 6HR MAX TEMP:  33;

STURGEON BAY   CLOUDY    36  33  89 SE10      30.17R WCI  28
6HR MIN TEMP:  36; 6HR MAX TEMP:  37;

GREEN BAY      PTCLDY    35  32  88 E5        30.13S WCI  31
6HR MIN TEMP:  34; 6HR MAX TEMP:  36;

MANITOWOC      CLOUDY    31  29  92 MISG      30.16S
6HR MIN TEMP:  30; 6HR MAX TEMP:  31;

APPLETON       PTCLDY    39  27  60 E7        30.08F WCI  34
CLINTONVILLE   PTCLDY    34  30  86 CALM      30.10F
OSHKOSH        CLOUDY    41  29  62 SE10      30.08F
6HR MIN TEMP:  34; 6HR MAX TEMP:  41;

$$

WIZ032>034-041-042-053>061-201300-
SOUTHWEST WISCONSIN

CITY           SKY/WX    TMP DP  RH WIND       PRES   REMARKS
LA CROSSE      CLOUDY    52  44  74 SE9       29.95S
6HR MIN TEMP:  45; 6HR MAX TEMP:  54;

SPARTA         CLOUDY    49  44  80 SE5       30.00R
6HR MIN TEMP:  42; 6HR MAX TEMP:  50;

VIROQUA        CLOUDY    47  43  85 SE13      29.98S
6HR MIN TEMP:  47; 6HR MAX TEMP:  49;

BOSCOBEL       MOCLDY    46  40  79 CALM      30.00S
6HR MIN TEMP:  45; 6HR MAX TEMP:  49;

PRAIRIE DU CHI PTCLDY    49  43  79 E9        29.99R
6HR MIN TEMP:  49; 6HR MAX TEMP:  52;

PLATTEVILLE    MOCLDY    42  42 100 E12       30.02S
6HR MIN TEMP:  42; 6HR MAX TEMP:  45;

$$

WIZ056-057-062-063-064-067-068-201300-
SOUTH CENTRAL WISCONSIN

CITY           SKY/WX    TMP DP  RH WIND       PRES   REMARKS
REEDSBURG      CLOUDY    42  40  93 E5        30.02F
6HR MIN TEMP:  38; 6HR MAX TEMP:  51;

BARABOO/DELLS  CLOUDY    46  39  76 SE3       30.04S
6HR MIN TEMP:  38; 6HR MAX TEMP:  47;

LONE ROCK      CLOUDY    45  40  82 E7        30.04R
6HR MIN TEMP:  43; 6HR MAX TEMP:  48;

MINERAL POINT  MOCLDY    48  45  87 SE12      30.03R
MADISON        MOCLDY    43  38  82 SE6       30.06S
6HR MIN TEMP:  43; 6HR MAX TEMP:  45;

MIDDLETON      PTCLDY    41  39  91 CALM      30.07R
6HR MIN TEMP:  38; 6HR MAX TEMP:  45;

WATERTOWN      CLOUDY    40  35  83 E10       30.08F WCI  33
6HR MIN TEMP:  38; 6HR MAX TEMP:  42;

MONROE         CLOUDY    45  43  93 SE10      30.05S
JANESVILLE     PTCLDY    41  41 100 SE6       30.08S FOG
$$

WIZ051-052-058>065-066-070>072-201300-
SOUTHEAST WISCONSIN

CITY           SKY/WX    TMP DP  RH WIND       PRES   REMARKS
MILWAUKEE      MOCLDY    38  32  79 CALM      30.13R
6HR MIN TEMP:  35; 6HR MAX TEMP:  39;

WAUKESHA       CLEAR     34  30  86 CALM      30.13R
MILWAUKEE/TIMM PTCLDY    32  30  93 CALM      30.13F
RACINE         PTCLDY    40  32  73 CALM      30.14R
6HR MIN TEMP:  35; 6HR MAX TEMP:  41;

KENOSHA        PTCLDY    40  34  79 SE3       30.12R
6HR MIN TEMP:  34; 6HR MAX TEMP:  42;

FOND DU LAC    PTCLDY    43  29  57 SE13      30.09F
6HR MIN TEMP:  39; 6HR MAX TEMP:  43;

SHEBOYGAN      CLOUDY    31  28  89 E3        30.14S
6HR MIN TEMP:  30; 6HR MAX TEMP:  32; 6HR PCP: TRACE;

WEST BEND      MOCLDY    30  30 100 CALM      30.12F
JUNEAU         PTCLDY    40  34  79 E12       30.09F WCI  33
6HR MIN TEMP:  39; 6HR MAX TEMP:  42;

$$

LSZ147-162-201300-
LAKE SUPERIOR

STATION/POSITION TIME  TEMP    WIND        PRES    WAVE
                       AIR SEA DIR/SP/G            HT/PER
                 (UTC) (F)     (DEG/KT/KT) (MB)    (FT/S)
DEVILS ISLAND    1200   45     140/  8/ 10 1014.2F
PORT WING        1140   35     150/  1/  7 1013.2F
SAXON HARBOR     1130   48     180/ 10/ 18 1014.2S
$$

LMZ867-665-643>646-201300-
LAKE MICHIGAN

STATION/POSITION TIME  TEMP    WIND        PRES    WAVE
                       AIR SEA DIR/SP/G            HT/PER
                 (UTC) (F)     (DEG/KT/KT) (MB)    (FT/S)
CHAMBERS ISLAND  1140   35      70/  4/  5 1021.3R
NORTHPORT PIER   1140   34      CALM  /  3 1022.0R
SISTER BAY       1120   37     140/  9/ 15   N/A
ALGOMA LAKESHORE 1040



USA.gov is the U.S. government's official web portal to all federal, state and local government web resources and services.